Showing default

SHIYAN 30 01, 65851

Orbit data source: Space-Track

SHIYAN 30 01, 65851 is a payload satellite owned by SAST (CN) in LEO that was launched on Mon, 29 Sep 2025 UTC via a CHANG ZHENG 2D launch vehicle from the Xichang Space Center, China (XSC). Payload-class satellites include a variety of spacecraft equipped with specific instruments for various scientific and technological missions. These include communications satellites like Starlink; space stations such as the ISS; scientific satellites like the Hubble; Earth observation satellites from companies like Planet Labs, Umbra, and HawkEye 360; GPS; miniature CubeSats for education and research; and military/defense satellites.

Loading next visibility...
Identifier
65851, 2025-222A
Orbit
LEO
Country
Flag of CNCN / PRC
Related business
Manufacturer
SAST
Mission
Operational Civil Radar Imaging
Bus & Motor
SY30, Unknown motor
Mass
500 kg wet, ~500 kg dry
Launch date (UTC)
2025-09-29 (9 months ago)
Launch vehicle
CHANG ZHENG 2D
Launch site
Xichang Space Center, China (XSC)
Object type
Payload
Rocket body
Debris
Shape & HBR
Box + 2 Pan, 1.1 m
Radar Cross Section
2.715 m², Large (>1 m²)

Expand to show TLE details & history
Last TLE update: 10 hours ago

TLE from 10 hours ago
0 SHIYAN 30 01
1 65851U 25222A   26171.43878638  .00001285  00000-0  12770-3 0  9998
2 65851  34.9879 242.5134 0001349 148.0044 212.0743 14.91778316 39521
Epoch: 2026-06-20T10:31Z
TLE epoch observation values (Epoch: 2026-06-20T10:31:51.143Z)
Latitude
0.00001°
Longitude
175.89692°
Altitude
592.108 km
Speed
7.566 km/s
True Right ascension
16h 10m 03s
True Declination
0° 00' 00"
Sunlit
Object was in full shadow at epoch
Visualization orbit readout
Latitude
Unknown
Longitude
Unknown
Altitude
Unknown
Speed
Unknown
Apparent Right ascension
Unknown
Apparent Declination
Unknown
Sunlit
N/A
Visualization observer readout
Local Sidereal Time
07:16:35
Azimuth
Unknown
Elevation
Unknown
Doppler factor
Unknown
Orbital elements
Apogee altitude
596.539 km
Perigee altitude
594.657 km
Semi-major axis
6,973.735 km
Eccentricity
0.00013
Inclination
34.9879°
RAAN
242.5134°
Arg. of periapsis
148.0044°
True anomaly
212.06609°
Mean anomaly
212.0743°
Eccentric anomaly
212.0702°
Mean motion
3.72688 °/min
Orbital period
96.6 mins
BSTAR
0.0001277
Loading maneuver chart data...
Computing Atmospheric mass density...
Loading historical data...
Loading historical data...
Loading historical data...
Loading historical data...
Loading historical data...
Loading historical data...
Loading historical data...
Other satellites on launch #222 in the year 2025 (2025-09-29 UTC)

Documentation

Showing up to 5 results
|